Погода в Аянке

Россия / Камчатский край     63°43′33″N   167°35′02″E
темп.,
°C
ветер,
м/с
пор.,
м/с
влажн.,
%
обл.,
%
осадки,
мм/ч
давл.,
гПа
погр.,
м
14 июня, пн
пн1400:00+7с22755 0.0 101215
03:00+6ссз11790 0.0 101210
06:00+9ююв00660 0.0 1012127
09:00+12ююз224818 0.0 1010856
12:00+15зюз124153 0.0 10081684
15:00+17сз1336100 0.0 10062220
18:00+17в123978 0.0 10041595
21:00+15ю225648 0.0 100431
15 июня, вт
вт1500:00+11юз226756 0.0 100313
03:00+10сз116899 0.0 100211
06:00+13ю116198 0.0 100192
09:00+17ююз124484 0.0 1000576
12:00+20зюз343163 0.0 9991567
15:00+22зюз352978 0.0 9982600
18:00+21ююз233990 0.0 997238
21:00+18юз510485 0.0 998301
16 июня, ср
ср1600:00+11ююз346652 0.0 100052
03:00+9ююз346757 0.0 100183
06:00+11ю336196 0.0 1003226
09:00+15ю464840 0.0 1003652
12:00+18юз89425 0.0 10031183
15:00+19ююз89370 0.0 10031453
18:00+18ююз810380 0.0 10041411
21:00+14юз611530 0.0 1005703
17 июня, чт
чт1700:00+9ююз34660 0.0 100660
03:00+8ю35759 0.0 100772
06:00+11ю467289 0.0 1007359
09:00+14ююз686390 0.0 10071142
12:00+13юз6105897 0.0 10071015
15:00+16ююз685294 0.1 10061518
18:00+15ююз6852100 0.1 10051213
21:00+13ю4867100 0.1 1006303
18 июня, пт
пт1800:00+11юз41068100 0.1 1007617
03:00+9юз3485100 0.7 1008202
06:00+10зюз127661 0.8 1010266
09:00+11ю336971 0.1 1010964
12:00+13ююз445499 0.1 10101451
15:00+14ю7654100 0.0 10111482
18:00+13ююз775783 0.1 10111238
21:00+11ю577394 0.0 1012447